Location: Chiroubles
(46.1812°N, 4.6660°E)
Time: 03:25:29
(UTC+00:00)

Tiros 1 - Pass Details

Date: 28 November 2020
Orbit: 630 x 663 km, 48.4° (Epoch: 16 January)

Event Time Altitude Azimuth Distance (km) Brightness Sun altitude
Rises 16:25:22 0° 251° (WSW) 2,989 13.1 -4.9°
Reaches altitude 10° 16:27:43 10° 252° (WSW) 2,076 11.6 -5.3°
Maximum altitude 16:32:32 90° 331° (NNW) 664 7.2 -6.1°
Drops below altitude 10° 16:37:19 10° 73° (ENE) 2,067 9.1 -6.8°
Enters shadow 16:37:42 - 73° (ENE) 2,214 9.2 -6.9°
